Location: Unspecified
(47.4992°N, 121.7766°W)
Time: 20:06:42
(UTC-07:00)

CZ-3 Stage 3 - Visible Passes

Search period start: 24 July 2024 00:00
Search period end: 03 August 2024 00:00
Orbit: 509 x 34608 km, 30.5° (Epoch: 24 July)

Date Brightness Start Highest point End Pass type
(mag) Time Alt. Az. Time Alt. Az. Time Alt. Az.
24 Jul 6.9 00:44:36 10° WSW 01:16:33 63° SSE 09:35:04 10° S visible
24 Jul 6.1 21:07:50 10° S 21:21:05 30° ESE 05:32:17 10° SE daylight
26 Jul 7.8 04:09:22 10° W 05:31:36 51° SW 11:07:02 10° WSW visible
27 Jul 6.9 00:23:57 10° WSW 00:53:11 62° SSE 09:13:43 10° S visible
27 Jul 6.1 20:47:36 10° S 21:00:05 28° ESE 05:04:25 10° SE daylight
29 Jul 7.8 03:48:06 10° W 05:07:50 52° SW 10:52:19 10° WSW visible
30 Jul 6.8 00:03:19 10° WSW 00:30:08 61° SSE 08:52:09 10° S visible
30 Jul 6.1 20:27:23 10° S 20:39:07 26° ESE 04:34:50 10° SE daylight
01 Aug 7.7 03:26:53 10° W 04:43:48 53° SW 10:37:18 10° WSW visible
01 Aug 6.8 23:42:41 10° WSW 00:07:21 61° SSE 08:30:22 10° S visible
02 Aug 6.0 20:07:10 10° SSE 20:18:11 24° ESE 21:51:36 10° E visible
